Zurück zum Katalog

STARLINK-36536

AktivKommunikationVLEO
NORAD 69510·PAYLOAD·🇺🇸 United States

Gestartet Jun 12, 2026 von Cape Canaveral Space Force Station

Loading…

Nächste Überflüge (nächste 24 Stunden)

TLE

AktuellSource: CelesTrak SupGP

Epoche: Sep 14, 2026, 22:55 UTC

1 69510C 26133C   26257.95534722  .00035369  00000+0  10449-2 0  2577
2 69510  53.1566 255.8565 0001362  96.4237 123.2485 15.34375073    12

Verfolge STARLINK-36536 in Echtzeit mit AllMySat

Download on the App Store